(254668) = 2005 LW15 = 2008 CO40

Discovered at Kitt Peak on 2005-06-05 by Spacewatch.

Orbit

Orbit type: Main Belt

Note: WebGL enabled browser required.

epoch2023-09-13.0
epoch JD2460200.5
perihelion date2022-07-08.53558
perihelion JD2459769.03558
argument of perihelion (°)100.03288
ascending node (°)217.63566
inclination (°)3.88925
eccentricity0.1253364
perihelion distance (AU)2.2714676
Tisserand w.r.t. Jupiter3.4
ΔV w.r.t. Earth (km/sec)9.5
semimajor axis (AU)2.5969615
mean anomaly (°)101.61330
mean daily motion (°/day)0.23550800
aphelion distance (AU)2.922
period (years)4.19
P-vector [x]0.73787663
P-vector [y]-0.64276966
P-vector [z]-0.20587676
Q-vector [x]0.67366356
Q-vector [y]0.68266794
Q-vector [z]0.28309344
absolute magnitude16.96
phase slope0.15
uncertainty0
referenceMPO 778815
observations used369
oppositions14
arc length (days)7798
first opposition used2001
last opposition used2022
residual rms (arc-secs)0.68
perturbers coarse indicatorM-v
perturbers precise indicator003Ek
first observation date used2001-07-18.0
last observation date used2022-11-23.0
computer nameMPCLINUX
JD of orbit computation2456966.715637
perihelion JD uncertainty (days)6.9757E-05
argument of perihelion uncertainty (°)5.0653E-05
ascending node uncertainty (°)4.7777E-05
inclination uncertainty (°)3.8295E-06
eccentricity uncertainty 2.8177E-08
perihelion distance uncertainty (AU)7.2913E-08
Minimum Orbit Intersection Distances (in AU)
for orbit epoch: 2460200.5, reference: E2023-TP1
Mercury1.85096
Venus1.55078
Earth1.26164
Mars0.89534
Jupiter2.3398
Saturn6.21222
Uranus15.5622
Neptune27.241

Observations

375 total observations over interval: 2001 07 18.42335 – 2022 11 23.231169
These data are available for download (format description).

Date (UT) J2000 RA J2000 Dec Magn Location Ref
2001 07 18.42335 21 46 53.29 -06 27 13.9 20.4 V 691 – Steward Observatory, Kitt Peak-Spacewatch MPS 239432
2001 07 18.44624 21 46 52.55 -06 27 15.4 20.1 V 691 – Steward Observatory, Kitt Peak-Spacewatch MPS 239432
2001 07 18.46796 21 46 51.89 -06 27 16.3 20.4 V 691 – Steward Observatory, Kitt Peak-Spacewatch MPS 239432
2005 06 05.38864 19 50 29.12 -15 31 21.3 20.7 V 691 – Steward Observatory, Kitt Peak-Spacewatch MPS 136572
2005 06 05.39103 19 50 29.10 -15 31 21.0 20.7 V 691 – Steward Observatory, Kitt Peak-Spacewatch MPS 136572
2005 06 05.40602 19 50 28.92 -15 31 18.4 20.9 V 691 – Steward Observatory, Kitt Peak-Spacewatch MPS 136572
2005 06 05.40839 19 50 28.85 -15 31 18.9 20.7 V 691 – Steward Observatory, Kitt Peak-Spacewatch MPS 136572
2005 06 05.42339 19 50 28.65 -15 31 16.7 20.6 V 691 – Steward Observatory, Kitt Peak-Spacewatch MPS 136572
2005 06 05.42576 19 50 28.61 -15 31 16.4 20.6 V 691 – Steward Observatory, Kitt Peak-Spacewatch MPS 136572
2005 06 10.41182 19 49 09.36 -15 21 23.8 20.7 V 691 – Steward Observatory, Kitt Peak-Spacewatch MPS 136572
2005 06 10.42924 19 49 08.98 -15 21 21.9 20.4 V 691 – Steward Observatory, Kitt Peak-Spacewatch MPS 136573
2005 06 10.44666 19 49 08.56 -15 21 20.2 20.4 V 691 – Steward Observatory, Kitt Peak-Spacewatch MPS 136573
2005 06 14.39129 19 47 35.36 -15 15 15.1 20.5 V 691 – Steward Observatory, Kitt Peak-Spacewatch MPS 136573
2005 06 14.40863 19 47 34.86 -15 15 13.5 20.3 V 691 – Steward Observatory, Kitt Peak-Spacewatch MPS 136573
2005 06 14.42600 19 47 34.35 -15 15 11.8 20.2 V 691 – Steward Observatory, Kitt Peak-Spacewatch MPS 136573
2006 09 28.40079 05 03 29.91 +21 21 34.4 21.2 V G96 – Mt. Lemmon Survey MPS 237549
2006 09 28.40928 05 03 30.13 +21 21 34.3 21.5 V G96 – Mt. Lemmon Survey MPS 237549
2006 09 28.41773 05 03 30.38 +21 21 33.3 21.5 V G96 – Mt. Lemmon Survey MPS 237549
2006 09 28.42638 05 03 30.60 +21 21 32.8 21.8 V G96 – Mt. Lemmon Survey MPS 237549
2006 11 18.26194 04 49 34.72 +19 29 32.5 21.0 V 691 – Steward Observatory, Kitt Peak-Spacewatch MPS 237549
2006 11 18.27938 04 49 33.73 +19 29 29.4 20.9 V 691 – Steward Observatory, Kitt Peak-Spacewatch MPS 237549
2006 11 18.29674 04 49 32.74 +19 29 25.7 21.2 V 691 – Steward Observatory, Kitt Peak-Spacewatch MPS 237549
2008 02 02.34984 10 48 10.63 +02 07 49.8 21.0 V 691 – Steward Observatory, Kitt Peak-Spacewatch MPS 237717
2008 02 02.36744 10 48 09.92 +02 07 53.0 21.1 V 691 – Steward Observatory, Kitt Peak-Spacewatch MPS 237717
2008 02 02.38505 10 48 09.26 +02 07 56.5 20.8 V 691 – Steward Observatory, Kitt Peak-Spacewatch MPS 237717
2008 02 09.33163 10 43 26.45 +02 33 01.4 21.4 V 691 – Steward Observatory, Kitt Peak-Spacewatch MPS 237717
2008 02 09.34924 10 43 25.63 +02 33 06.0 21.0 V 691 – Steward Observatory, Kitt Peak-Spacewatch MPS 237717
2008 02 09.36685 10 43 24.82 +02 33 10.3 21.0 V 691 – Steward Observatory, Kitt Peak-Spacewatch MPS 237717
2008 02 10.29248 10 42 43.70 +02 37 01.6 20.9 V 691 – Steward Observatory, Kitt Peak-Spacewatch MPS 239432
2008 02 10.31024 10 42 42.87 +02 37 06.0 20.7 V 691 – Steward Observatory, Kitt Peak-Spacewatch MPS 239432
2008 02 10.32801 10 42 42.04 +02 37 10.5 20.7 V 691 – Steward Observatory, Kitt Peak-Spacewatch MPS 239432
2008 02 13.32175 10 40 23.70 +02 50 23.8 20.8 V 691 – Steward Observatory, Kitt Peak-Spacewatch MPS 237549
2008 02 13.33939 10 40 22.83 +02 50 28.5 20.7 V 691 – Steward Observatory, Kitt Peak-Spacewatch MPS 237549
2008 02 13.35467 10 40 22.10 +02 50 32.7 20.6 V 691 – Steward Observatory, Kitt Peak-Spacewatch MPS 237549
2008 02 27.28697 10 28 37.27 +04 03 32.9 20.8 V G96 – Mt. Lemmon Survey MPS 239432
2008 02 27.29622 10 28 36.80 +04 03 36.6 21.5 V G96 – Mt. Lemmon Survey MPS 239432
2008 02 27.30544 10 28 36.30 +04 03 38.7 21.1 V G96 – Mt. Lemmon Survey MPS 239432
2008 02 27.31465 10 28 35.76 +04 03 42.6 21.1 V G96 – Mt. Lemmon Survey MPS 239432
2008 03 13.26317 10 16 12.79 +05 30 25.6 21.0 V G96 – Mt. Lemmon Survey MPS 242114
2008 03 13.26996 10 16 12.50 +05 30 27.7 21.2 V G96 – Mt. Lemmon Survey MPS 242114
2008 03 13.27657 10 16 12.18 +05 30 29.7 20.7 V G96 – Mt. Lemmon Survey MPS 242114
2008 03 13.28322 10 16 11.85 +05 30 31.9 21.1 V G96 – Mt. Lemmon Survey MPS 242114
2008 04 01.19325 10 05 10.39 +07 03 59.4 20.6 V G96 – Mt. Lemmon Survey MPS 244694
2008 04 01.19873 10 05 10.28 +07 04 00.7 21.2 V G96 – Mt. Lemmon Survey MPS 244694
2008 04 01.20424 10 05 10.14 +07 04 01.9 21.1 V G96 – Mt. Lemmon Survey MPS 244694
2008 04 01.20977 10 05 10.03 +07 04 03.6 21.4 V G96 – Mt. Lemmon Survey MPS 244694
2010 09 11.45264 03 38 26.62 +19 43 55.6 20.6 V G96 – Mt. Lemmon Survey MPS 347956
2010 09 11.45849 03 38 26.84 +19 43 55.7 20.4 V G96 – Mt. Lemmon Survey MPS 347956
2010 09 11.46439 03 38 26.91 +19 43 55.8 20.7 V G96 – Mt. Lemmon Survey MPS 347956
2010 09 11.47018 03 38 27.06 +19 43 55.9 20.6 V G96 – Mt. Lemmon Survey MPS 347956
2010 11 10.34160 03 14 51.28 +16 42 24.6 19.9 V G96 – Mt. Lemmon Survey MPS 355330
2010 11 10.34733 03 14 50.96 +16 42 22.7 19.9 V G96 – Mt. Lemmon Survey MPS 355330
2010 11 10.35315 03 14 50.64 +16 42 21.0 19.6 V G96 – Mt. Lemmon Survey MPS 355330
2010 11 10.35896 03 14 50.31 +16 42 19.2 19.6 V G96 – Mt. Lemmon Survey MPS 355330
2010 11 14.22635 03 11 10.03 +16 21 45.0 20.1 V G96 – Mt. Lemmon Survey MPS 357416
2010 11 14.23336 03 11 09.63 +16 21 42.7 20.0 V G96 – Mt. Lemmon Survey MPS 357416
2010 11 14.24037 03 11 09.20 +16 21 40.7 20.4 V G96 – Mt. Lemmon Survey MPS 357416
2010 11 14.24742 03 11 08.77 +16 21 38.5 19.9 V G96 – Mt. Lemmon Survey MPS 357416
2012 02 14.35313 09 27 16.167 +09 02 37.73 21.2 w F51 – Pan-STARRS 1, Haleakala MPS 412840
2012 02 14.36736 09 27 15.374 +09 02 41.87 21.1 w F51 – Pan-STARRS 1, Haleakala MPS 412840
2012 02 14.38154 09 27 14.581 +09 02 46.03 21.1 w F51 – Pan-STARRS 1, Haleakala MPS 412840
2012 02 14.39573 09 27 13.787 +09 02 50.18 21.2 w F51 – Pan-STARRS 1, Haleakala MPS 412840
2012 02 25.27154 09 17 50.60 +09 55 55.5 20.9 V G96 – Mt. Lemmon Survey MPS 415972
2012 02 25.27833 09 17 50.28 +09 55 57.4 21.4 V G96 – Mt. Lemmon Survey MPS 415972
2012 02 25.28520 09 17 49.95 +09 55 59.4 21.1 V G96 – Mt. Lemmon Survey MPS 415972
2012 02 25.29213 09 17 49.56 +09 56 01.5 20.6 V G96 – Mt. Lemmon Survey MPS 415972
2013 04 15.51174 16 09 40.417 -19 46 13.67 20.6 w F51 – Pan-STARRS 1, Haleakala MPS 464873
2013 04 15.52596 16 09 40.106 -19 46 11.46 20.7 w F51 – Pan-STARRS 1, Haleakala MPS 464873
2013 04 15.54026 16 09 39.800 -19 46 09.01 20.7 w F51 – Pan-STARRS 1, Haleakala MPS 464873
2013 04 15.55448 16 09 39.496 -19 46 06.79 20.6 w F51 – Pan-STARRS 1, Haleakala MPS 464873
2013 05 08.43870 15 55 46.632 -18 22 36.54 20.1 w F51 – Pan-STARRS 1, Haleakala MPS 467386
2013 05 08.46687 15 55 45.149 -18 22 29.12 20.1 w F51 – Pan-STARRS 1, Haleakala MPS 467386
2013 05 08.48101 15 55 44.398 -18 22 25.33 20.2 w F51 – Pan-STARRS 1, Haleakala MPS 467386
2013 05 29.29301 15 37 00.17 -16 46 33.8 20.7 V 691 – Steward Observatory, Kitt Peak-Spacewatch MPS 469068
2013 05 29.31072 15 36 59.19 -16 46 29.1 20.7 V 691 – Steward Observatory, Kitt Peak-Spacewatch MPS 469068
2013 05 29.32845 15 36 58.27 -16 46 24.3 20.2 V 691 – Steward Observatory, Kitt Peak-Spacewatch MPS 469068
2013 06 04.37476 15 31 53.810 -16 20 31.88 20.1 w F51 – Pan-STARRS 1, Haleakala MPS 469769
2013 06 04.38968 15 31 53.062 -16 20 28.28 20.2 w F51 – Pan-STARRS 1, Haleakala MPS 469769
2013 06 04.40441 15 31 52.325 -16 20 24.70 20.2 w F51 – Pan-STARRS 1, Haleakala MPS 469769
2013 06 06.23667 15 30 26.59 -16 13 06.2 20.5 V 691 – Steward Observatory, Kitt Peak-Spacewatch MPS 469770
2013 06 06.25438 15 30 25.74 -16 13 01.6 20.3 V 691 – Steward Observatory, Kitt Peak-Spacewatch MPS 469770
2013 06 06.27209 15 30 24.87 -16 12 57.7 20.6 V 691 – Steward Observatory, Kitt Peak-Spacewatch MPS 469770
2013 06 10.21880 15 27 33.17 -15 58 13.2 20.7 V 691 – Steward Observatory, Kitt Peak-Spacewatch MPS 470561
2013 06 10.23652 15 27 32.39 -15 58 09.5 20.8 V 691 – Steward Observatory, Kitt Peak-Spacewatch MPS 470561
2013 06 10.25425 15 27 31.63 -15 58 05.6 20.7 V 691 – Steward Observatory, Kitt Peak-Spacewatch MPS 470561
